Location: Invercargill
(46.4000°S, 168.3500°E)
Time: 19:19:13
(UTC+12:00)

Cosmos 1655 Rocket - Pass Details

Date: 14 May 2021
Orbit: 970 x 1007 km, 82.9° (Epoch: 14 June)

Event Time Altitude Azimuth Distance (km) Brightness Sun altitude
Rises 19:13:32 0° 13° (NNE) 3,683 7.0 -18.6°
Reaches altitude 10° 19:16:06 10° 19° (NNE) 2,748 6.2 -19.0°
Maximum altitude 19:22:05 47° 90° (E) 1,308 4.2 -20.1°
Drops below altitude 10° 19:28:12 10° 161° (SSE) 2,804 6.2 -21.1°
Sets 19:30:51 0° 166° (SSE) 3,765 6.9 -21.6°
